Regional Weather Roundup
Issued by NWS

Home | Current Version | Previous Version | Text Only | Print | Product List | Glossary On
Versions: 1 2 3 4 5 6 7 8 9 10 11 12 13 14 15 16 17 18 19 20 21 22 23 24 25 26 27 28 29 30 31 32 33 34 35 36 37 38 39 40 41 42 43 44 45 46 47 48 49 50
521
ASUS43 KFSD 060802
RWRSD

WEATHER ROUNDUP FOR SOUTH DAKOTA
NATIONAL WEATHER SERVICE SIOUX FALLS SD
300 AM CDT FRI MAY 06 2016

NOTE: "FAIR" INDICATES FEW OR NO CLOUDS BELOW 12,000 FEET WITH NO
SIGNIFICANT WEATHER AND/OR OBSTRUCTIONS TO VISIBILITY.


SDZ001>005-009-010-012>017-060900-
NORTHWEST AND NORTH CENTRAL SOUTH DAKOTA

CITY           SKY/WX    TMP DP  RH WIND       PRES   REMARKS
BUFFALO          N/A     65  42  43 NW6       29.80S
FAITH            N/A     67  41  38 SE9       29.82F
MOBRIDGE       CLOUDY    57  49  74 SE3       29.77S
$$

SDZ012>016-024>037-041>051-057-063-072>074-060900-
SOUTHWEST AND SOUTH CENTRAL SOUTH DAKOTA

CITY           SKY/WX    TMP DP  RH WIND       PRES   REMARKS
RAPID CTY ARPT CLOUDY    53  40  61 W5        29.87S
PIERRE         CLEAR     63  49  60 SW14      29.80S
CUSTER         CLOUDY    51  34  52 CALM      30.02F
ELLSWORTH AFB  CLOUDY    61  41  48 W9        29.86F
PHILIP         CLEAR     58  47  66 NW5       29.83F
PINE RIDGE     CLOUDY    64  44  48 S16       29.91F
WINNER         LGT RAIN  68  48  48 S20G28    29.86S
$$

SDZ004>011-016>023-039-040-060900-
NORTHEAST SOUTH DAKOTA

CITY           SKY/WX    TMP DP  RH WIND       PRES   REMARKS
ABERDEEN       CLOUDY    62  46  55 S12       29.79F
WATERTOWN      CLEAR     56  44  64 S9        29.87F
BROOKINGS      CLEAR     57  44  62 S9        29.90F
SISSETON         N/A     69  41  36 W22G31    29.79F
$$

SDZ017-020-022-023-036>040-048>070-060900-
SOUTHEAST SOUTH DAKOTA

CITY           SKY/WX    TMP DP  RH WIND       PRES   REMARKS
SIOUX FALLS    CLEAR     60  43  53 S12       29.92S
HURON          PTCLDY    60  47  61 S14       29.84F
MITCHELL       CLEAR     62  48  60 S9        29.88S
YANKTON        CLEAR     64  43  45 S9        29.92S
$$

ABBREVIATIONS USED IN REMARKS
   TC - TEMPERATURE IN CELSIUS
  WCI - WIND CHILL INDEX
   HX - HEAT INDEX
  VSB - VISIBILITY





USA.gov is the U.S. government's official web portal to all federal, state and local government web resources and services.